Change the Weather History Date:

Friday, November 15, 2013

  Actual Average (KCKC) Record (KCKC)
Temperature  
Mean Temperature 38 °F -  
Max Temperature 45 °F 31 °F 55 °F (2001)
Min Temperature 30 °F 20 °F 1 °F (2002)
Degree Days  
Heating Degree Days 28    
Moisture  
Dew Point 33 °F    
Average Humidity 85    
Maximum Humidity 96    
Minimum Humidity 65    
Precipitation  
Precipitation 0.01 in - - ()
Sea Level Pressure  
Sea Level Pressure 29.76 in    
Wind  
Wind Speed 2 mph (West)    
Max Wind Speed 12 mph    
Max Gust Speed -    
Averages and records for this station are not official NWS values.
T = Trace of Precipitation, MM = Missing Value Source: NWS Daily Summary

Daily Weather History Graph

Daily Weather History Graph

Search for Another Location

Airport or City:

Trip Planner

Search our weather history database for the weather conditions in past years. The results will help you decide how hot, cold, wet, or windy it might be!

Date:

Astronomy

Nov. 15, 2013 Rise Set
Actual Time 7:07 AM CST 4:24 PM CST
Civil Twilight 6:33 AM CST 4:57 PM CST
Nautical Twilight 5:56 AM CST 5:35 PM CST
Astronomical Twilight 5:19 AM CST 6:11 PM CST
Moon 3:27 PM CST (11/15) 4:56 AM CST (11/15)
Length of Visible Light 10h 24m
Length of Day
9h 16m
Waxing Gibbous, 96% of the Moon is Illuminated
Nov 15
Waxing Gibbous
Nov 17
Full
Nov 25
Last Quarter
Dec 2
New
Dec 9
First Quarter

Hourly Weather History & Observations

Time (CST) Temp. Windchill Dew Point Humidity Pressure Visibility Wind Dir Wind Speed Gust Speed Precip Events Conditions
12:56 AM 34.0 °F - 28.0 °F 79% 29.76 in - Calm Calm - N/A   Unknown
1:56 AM 35.1 °F - 28.9 °F 78% 29.76 in - Calm Calm - N/A   Unknown
2:56 AM 35.1 °F - 30.0 °F 82% 29.76 in - Calm Calm - N/A   Unknown
3:56 AM 35.1 °F - 32.0 °F 89% 29.74 in - Calm Calm - N/A   Unknown
4:56 AM 36.0 °F - 34.0 °F 93% 29.76 in - Calm Calm - 0.01 in   Unknown
5:56 AM 37.0 °F - 35.1 °F 93% 29.75 in - Calm Calm - N/A   Unknown
6:56 AM 37.0 °F - 35.1 °F 93% 29.76 in - Calm Calm - N/A   Unknown
7:56 AM 39.0 °F - 35.1 °F 86% 29.78 in - Calm Calm - N/A   Unknown
8:56 AM 42.1 °F 37.7 °F 35.1 °F 76% 29.79 in - WSW 6.9 mph - N/A   Unknown
9:56 AM 44.1 °F 42.5 °F 33.1 °F 65% 29.78 in - Variable 3.5 mph - N/A   Unknown
10:56 AM 42.1 °F 35.7 °F 35.1 °F 76% 29.79 in - SW 11.5 mph - N/A   Unknown
11:56 AM 42.1 °F 35.7 °F 35.1 °F 76% 29.78 in - SW 11.5 mph - N/A   Unknown
12:56 PM 44.1 °F 39.0 °F 37.0 °F 76% 29.77 in - WSW 9.2 mph - N/A   Unknown
1:56 PM 45.0 °F 41.2 °F 37.9 °F 76% 29.76 in - WSW 6.9 mph - N/A   Unknown
2:56 PM 43.0 °F 39.5 °F 37.9 °F 82% 29.76 in - WSW 5.8 mph - N/A   Unknown
3:56 PM 42.1 °F 40.2 °F 37.0 °F 82% 29.76 in - West 3.5 mph - N/A   Unknown
4:56 PM 35.1 °F 32.2 °F 32.0 °F 89% 29.75 in - NNW 3.5 mph - N/A   Unknown
5:56 PM 32.0 °F - 28.9 °F 88% 29.75 in - Calm Calm - N/A   Unknown
6:56 PM 32.0 °F - 30.0 °F 92% 29.75 in - Calm Calm - N/A   Unknown
7:56 PM 30.9 °F 27.5 °F 28.9 °F 92% 29.75 in - North 3.5 mph - N/A   Unknown
8:56 PM 32.0 °F - 30.0 °F 92% 29.75 in - Calm Calm - N/A   Unknown
9:56 PM 35.1 °F - 33.1 °F 92% 29.73 in - Calm Calm - N/A   Unknown
10:56 PM 34.0 °F - 33.1 °F 96% 29.73 in - Calm Calm - N/A   Unknown
11:56 PM 36.0 °F - 34.0 °F 93% 29.72 in - Calm Calm - N/A   Unknown